Back to Previous

Regional Weather Roundup

000
ASUS44 KLZK 230605
RWRLZK

WEATHER ROUNDUP FOR ARKANSAS
NATIONAL WEATHER SERVICE LITTLE ROCK AR
100 AM CDT SAT MAY 23 2015

NOTE: "FAIR" INDICATES FEW OR NO CLOUDS BELOW 12,000 FEET WITH NO
SIGNIFICANT WEATHER AND/OR OBSTRUCTIONS TO VISIBILITY.

ARZ001-003-010-029-230700-
NORTHWEST ARKANSAS
  
CITY           SKY/WX    TMP DP  RH WIND       PRES   REMARKS
FAYETTEVILLE   CLOUDY    56  52  86 E6        30.21F                  
6HR MIN TEMP:  53; 6HR MAX TEMP:  63;                                

FORT SMITH     CLOUDY    61  55  81 E5        30.21R                  
6HR MIN TEMP:  60; 6HR MAX TEMP:  61; 6HR PCP:  0.01;                

HARRISON       CLOUDY    56  50  80 SE6       30.25R                  
6HR MIN TEMP:  55; 6HR MAX TEMP:  63;                                

BENTONVILLE    PTCLDY   N/A N/A N/A SE6       30.21F                  
ROGERS         CLOUDY    59  51  75 E8        30.23F                  
6HR MIN TEMP:  58; 6HR MAX TEMP:  64; 6HR PCP:  0.01;                

SILOAM SPGS    CLOUDY    55  48  76 SE7       30.21F                  
6HR MIN TEMP:  55; 6HR MAX TEMP:  64;                                

HIGHFILL       MOCLDY    57  50  77 E6        30.21                   
6HR MIN TEMP:  57; 6HR MAX TEMP:  66;                                

$$

ARZ004-005-016-230700-
NORTH CENTRAL ARKANSAS
  
CITY           SKY/WX    TMP DP  RH WIND       PRES   REMARKS
BATESVILLE     CLOUDY    57  54  88 CALM      30.23F                  
6HR MIN TEMP:  57; 6HR MAX TEMP:  66;                                

FLIPPIN        MOCLDY    55  52  88 CALM      30.23S                  
6HR MIN TEMP:  55; 6HR MAX TEMP:  64;                                

MTN HOME       MOCLDY    56  51  84 SE3       30.24S                  
6HR MIN TEMP:  53; 6HR MAX TEMP:  63;                                

$$

ARZ040-041-230700-
WEST CENTRAL ARKANSAS
  
CITY           SKY/WX    TMP DP  RH WIND       PRES   REMARKS
MENA           CLOUDY    61  59  94 E3        30.21S                  
MOUNT IDA      CLOUDY    59  58  96 CALM      30.19F FOG              
6HR MIN TEMP:  59; 6HR MAX TEMP:  62; 6HR PCP:  0.46;                

$$

ARZ009-017-025-026-028-230700-
NORTHEAST ARKANSAS
  
CITY           SKY/WX    TMP DP  RH WIND       PRES   REMARKS
CORNING          N/A     61  57  88 CALM      30.26R                  
JONESBORO      CLOUDY    60  56  86 NE5       30.23S                  
6HR MIN TEMP:  55; 6HR MAX TEMP:  66;                                

NEWPORT        CLOUDY    63  58  83 E3        30.24S                  
6HR MIN TEMP:  63; 6HR MAX TEMP:  68;                                

WALNUT RIDGE   MOCLDY    63  54  72 NE5       30.24R                  
6HR MIN TEMP:  63; 6HR MAX TEMP:  66;                                

BLYTHEVILLE    PTCLDY    59  56  89 E7        30.23F                  
6HR MIN TEMP:  59; 6HR MAX TEMP:  70;                                

$$

ARZ022-023-033-042-044-230700-
CENTRAL ARKANSAS
  
CITY           SKY/WX    TMP DP  RH WIND       PRES   REMARKS
LITTLE ROCK    MOCLDY    63  56  78 CALM      30.22S                  
6HR MIN TEMP:  62; 6HR MAX TEMP:  68; 6HR PCP: TRACE;                

N LITTLE ROCK    N/A     60  57  91 NE5       30.22S                  
6HR MIN TEMP:  60; 6HR MAX TEMP:  67;                                

SEARCY         CLOUDY    63  56  78 CALM      30.24                   
6HR MIN TEMP:  63; 6HR MAX TEMP:  67;                                

HOT SPRINGS    LGT RAIN  61  57  87 N3        30.21S                  
6HR MIN TEMP:  60; 6HR MAX TEMP:  66; 6HR PCP:  0.12;                

RUSSELLVILLE   CLOUDY    62  55  77 CALM      30.21F                  
6HR MIN TEMP:  60; 6HR MAX TEMP:  65; 6HR PCP: TRACE;                

CLINTON        MOCLDY    55  54  94 CALM      30.26S                  
$$

ARZ036-230700-
EAST ARKANSAS
  
CITY           SKY/WX    TMP DP  RH WIND       PRES   REMARKS
WEST MEMPHIS   CLOUDY    64  53  67 E7        30.21F                  
6HR MIN TEMP:  61; 6HR MAX TEMP:  70;                                

$$

ARZ050-053-066-070-073-230700-
SOUTHWEST ARKANSAS
  
CITY           SKY/WX    TMP DP  RH WIND       PRES   REMARKS
ARKADELPHIA    FAIR      63  62  96 CALM      30.20F                  
6HR MIN TEMP:  63; 6HR MAX TEMP:  70; 6HR PCP:  0.01;                

CAMDEN         PTCLDY    59  55  88 CALM      30.19S                  
TEXARKANA      MOCLDY    65  57  75 E3        30.17S                  
6HR MIN TEMP:  64; 6HR MAX TEMP:  72;                                

EL DORADO      CLEAR     60  57  89 CALM      30.18F                  
6HR MIN TEMP:  60; 6HR MAX TEMP:  72;                                

DE QUEEN       CLOUDY    62  59  90 E3        30.16F                  
6HR MIN TEMP:  61; 6HR MAX TEMP:  63; 6HR PCP:  0.02;                

$$

ARZ056-057-069-230700-
SOUTHEAST ARKANSAS
  
CITY           SKY/WX    TMP DP  RH WIND       PRES   REMARKS
PINE BLUFF     CLEAR     61  57  87 NE3       30.21R                  
6HR MIN TEMP:  60; 6HR MAX TEMP:  70;                                

STUTTGART      PTCLDY    64  55  72 NE6       30.21S                  
6HR MIN TEMP:  63; 6HR MAX TEMP:  70;                                

MONTICELLO     PTCLDY    60  56  86 CALM      30.19F                  
6HR MIN TEMP:  60; 6HR MAX TEMP:  72;                                


$$



USA.gov is the U.S. government's official web portal to all federal, state and local government web resources and services.